sat.trackr.live / text

‹ back to catalog

STARLINK-32577

NORAD 62044 · 2024-216N

PAYLOAD ACTIVE UNKNOWN

§ Identity

Operator
Country
US
Launch date
2024-11-21
Launch site
AFETR
Launch vehicle
Mass (kg)
RCS (m²)

Purposes: comms

External: N2YO · Heavens-Above · Gunter

§ Orbital elements

Epoch: 2026-05-25T04:36:03.307680Z

Period
94.27 min
Inclination
43.0003°
Eccentricity
0.0001750
Mean motion
15.27586657 rev/d
Perigee alt
481.8 km
Apogee alt
484.2 km
Semi-major
6,861.2 km
B*
5.4846e-4
RAAN
191.3749°
Arg perigee
261.3413°
Mean anomaly
98.7241°
Rev number
8,550

§ Raw data

STARLINK-325771 62044U 24216N   26145.19170495  .00014864  00000+0  54846-3 0  99972 62044  43.0003 191.3749 0001750 261.3413  98.7241 15.27586657 85506

JSON: /api/v1/satellites/62044 · /tle

For live sub-satellite position, see the globe view (requires WebGL).

§ Visibility from observer

Set your observer location to see the next 7 days of passes ≥ 10°. The values pass through the URL so the page stays shareable.

No JS? Fill the form by hand. The geolocation button needs JavaScript.